Location: Augustenthal
(51.7167°N, 10.2833°E)
Time: 23:12:47
(UTC+00:00)

Cosmos 1943 Rocket - Pass Details

Date: 18 May 2021
Orbit: 814 x 842 km, 71.0° (Epoch: 24 June)

Event Time Altitude Azimuth Distance (km) Brightness Sun altitude
Rises 19:54:38 0° 174° (S) 3,374 4.9 -6.2°
Reaches altitude 10° 19:57:20 10° 164° (SSE) 2,441 4.1 -6.5°
Maximum altitude 20:02:07 30° 105° (ESE) 1,462 3.0 -7.1°
Drops below altitude 10° 20:06:53 10° 47° (NE) 2,439 4.6 -7.6°
Sets 20:09:34 0° 37° (NE) 3,372 5.5 -7.9°
